Terminal Aerodrome Forecast
Issued by NWS

Home | Current Version | Previous Version | Text Only | Print | Product List | Glossary On
Versions: 1 2 3 4 5 6 7 8 9 10 11 12 13 14 15 16 17 18 19 20 21 22 23 24 25 26 27 28 29 30 31 32 33 34 35 36 37 38 39 40 41 42
000
FTAK31 PANC 181301 AAA
TAFADQ
TAF AMD
PADQ 181301Z 1813/1912 33010KT P6SM FEW025 BKN060
      TEMPO 1813/1815 -SHRA BKN030
     FM181800 33012G19KT P6SM VCSH FEW035 SCT050 SCT250
     FM190300 32008KT P6SM FEW035 SCT050 SCT250=

USA.gov is the U.S. government's official web portal to all federal, state and local government web resources and services.